QARMAN (45263 NORAD) Tracking and Keplerian Element Data

This shows tracking and keplerian element data for the satellite.

Feedback or suggestion? Click here.




ElementValue
Catalog45263
NameQARMAN
Epoch Orbit679
Epoch Day93.78388608
Epoch Year2020
RAAN1.3228
Inclination51.6432
Eccentricity0.0008499
Argument of Perigee79.034
Mean Anonmoly281.1605
Mean Motion15.50163129
Decay Rate7.131E-05
L11 45263U 98067RG 20093.78388608 .00007131 00000-0 13199-3 0 9990
L22 45263 51.6432 1.3228 0008499 79.0340 281.1605 15.50163129 6790

Live tracking and technical data element details for QARMAN (NORAD 45263). QARMAN can be tracked NOW for your location showing map with azimuth and elevation plus other details from your city location.

Track the satellite on the map from your city or location and see movement details for azimuth, elevation, latitude, longitude, range, height, and movement on the map or in text.







IsCatalogInMostPopularTable: catalog: 45263, numindb: 10
Update: records affected: 1



GetName: 45263 QARMAN

Hit Count: updated at: Mon, 06 Apr 2020 11:52:53 GMT